"TOA5","AWS1","CR1000","7964","CR1000.Std.14","CPU:AWS1_114.CR1","64363","TBL110"
"TIMESTAMP","RECORD","Wind_spd_WVc(1)","Wind_spd_WVc(2)","Air_Temp_Avg","Humidity_Avg","SW_upper_Wm2_Avg","Rain_Tot","Press_Avg","Issui_Tot","Depth_cm","SR50A_Raw","Quality","Ground_Temp_Avg(1)","Ground_Temp_Avg(2)","SW_lower_Wm2_Avg","Albedo_Avg","SWC_per(1)","SWC_per(2)","Period(1)","Period(2)"
"TS","RN","","","","","","","","","","","","","","","","","","",""
"","","WVc","WVc","Avg","Avg","Avg","Tot","Avg","Tot","Smp","Smp","Smp","Avg","Avg","Avg","Avg","Smp","Smp","Smp","Smp"
"2017-03-22 00:00:00",280285,1,354.4,-3.437,100,1.54959,0,856.0275,0,114.7,2.047,186,0.768,1.282,0,0,52.27,60.09,33.85,35.7
"2017-03-22 00:10:00",280286,1.235,319.3,-3.742,100,1.667579,0,856.2194,0,114.7,2.048,189,0.776,1.283,0,0,52.27,60.09,33.85,35.7
"2017-03-22 00:20:00",280287,0.627,330.9,-3.988,100,1.608584,0,856.2636,0,115,2.045,182,0.783,1.284,0,0,52.27,60.09,33.85,35.7
"2017-03-22 00:30:00",280288,0.931,322.4,-4.246,100,1.463064,0,856.4407,0,115,2.046,182,0.76,1.284,0,0,52.27,60.09,33.85,35.7
"2017-03-22 00:40:00",280289,1.321,298.2,-4.45,99.9,1.254617,0,856.5439,0.5,115,2.047,170,0.75,1.284,0,0,52.21,60.09,33.84,35.7
"2017-03-22 00:50:00",280290,1.105,300.4,-4.641,99.9,0.9360466,0,856.818,0,114.9,2.049,182,0.735,1.284,0,0,52.21,60.09,33.84,35.7
"2017-03-22 01:00:00",280291,1.416,310.7,-4.828,98.6,0.888851,0,856.9655,0,115,2.049,174,0.74,1.287,0.00379213,0.004,52.21,60.09,33.84,35.7
"2017-03-22 01:10:00",280292,0.855,311.7,-5.132,94.9,1.105173,0,856.9297,0,114.8,2.051,170,0.742,1.31,0,0,52.21,60.09,33.84,35.7
"2017-03-22 01:20:00",280293,0.69,309.6,-5.345,92,1.113043,0,856.936,0,114.7,2.053,170,0.748,1.323,0,0,52.27,60.09,33.85,35.7
"2017-03-22 01:30:00",280294,0.077,302.3,-5.38,94.2,0.7079403,0,856.9571,0,114.9,2.052,186,0.729,1.327,0.003792159,0.005,52.21,60.09,33.84,35.7
"2017-03-22 01:40:00",280295,0.266,345.9,-5.562,89.7,0.6332395,0,856.936,0,114.7,2.054,170,0.758,1.341,0.04930197,0.129,52.21,60.09,33.84,35.7
"2017-03-22 01:50:00",280296,0.267,286.6,-5.571,90.9,0.2674774,0,856.9634,0,114.8,2.053,186,0.78,1.359,0.2275589,0.9,52.27,60.09,33.85,35.7
"2017-03-22 02:00:00",280297,0.575,242.2,-5.639,91.9,0.1258782,0,856.9794,0,114.6,2.056,191,0.804,1.369,0.2275724,0.514,52.21,60.09,33.84,35.7
"2017-03-22 02:10:00",280298,0.324,212.3,-5.651,95.5,0.03540695,0,857.2557,0,114.6,2.056,190,0.83,1.376,0.1517234,0,52.27,60.09,33.85,35.7
"2017-03-22 02:20:00",280299,0.645,286.6,-5.738,89.7,0.2360516,0,857.4724,0,114.5,2.057,190,0.845,1.372,0.0606936,0.257,52.27,60.09,33.85,35.7
"2017-03-22 02:30:00",280300,0.42,248.9,-5.753,87.7,0.01180277,0,857.5126,0,114.5,2.057,190,0.849,1.366,0.2276033,0.048,52.27,60.09,33.85,35.7
"2017-03-22 02:40:00",280301,0.319,257.7,-5.779,90.7,0,0,857.5374,0,114.5,2.057,189,0.852,1.359,0.2276049,0,52.21,60.09,33.84,35.7
"2017-03-22 02:50:00",280302,0.609,267.7,-5.876,89.9,0,0,857.5504,0,114.4,2.058,191,0.853,1.374,0.2124318,0,52.21,60.09,33.84,35.7
"2017-03-22 03:00:00",280303,0.899,278.1,-5.913,89.5,0,0,857.6171,0,114.4,2.058,189,0.853,1.359,0.2276056,0,52.27,60.09,33.85,35.7
"2017-03-22 03:10:00",280304,0.961,302.4,-5.854,89.3,0,0,857.7239,0,114.6,2.056,186,0.853,1.365,0.2503662,0,52.27,60.09,33.85,35.7
"2017-03-22 03:20:00",280305,1.145,287.8,-5.928,90.1,0,0,857.6589,0,114.6,2.056,186,0.856,1.364,0.2276056,0,52.27,60.15,33.85,35.71
"2017-03-22 03:30:00",280306,0.701,275.4,-5.876,87.9,0,0,857.8234,0,114.5,2.057,186,0.868,1.371,0.2276056,0,52.27,60.15,33.85,35.71
"2017-03-22 03:40:00",280307,1.019,278.2,-5.918,87.6,0,0,857.815,0,114.5,2.057,186,0.868,1.37,0.2276056,0,52.27,60.15,33.85,35.71
"2017-03-22 03:50:00",280308,1.059,270.7,-5.903,88.6,0,0,857.8403,0,114.5,2.057,185,0.872,1.37,0.2276056,0,52.27,60.09,33.85,35.7
"2017-03-22 04:00:00",280309,0.977,256.4,-5.897,90.1,0,0,857.6569,0,114.4,2.058,179,0.893,1.372,0.2276056,0,52.21,60.15,33.84,35.71
"2017-03-22 04:10:00",280310,1.063,283.5,-5.872,87.9,0,0,857.7813,0,114.4,2.058,187,0.896,1.374,0.231399,0,52.27,60.15,33.85,35.71
"2017-03-22 04:20:00",280311,0.925,287.4,-5.81,87.2,0,0,857.8677,0,114.4,2.058,177,0.89,1.373,0.3300281,0,52.27,60.15,33.85,35.71
"2017-03-22 04:30:00",280312,1.403,225,-5.778,87.3,0,0,857.8993,0,114.2,2.06,170,0.883,1.374,0.4021033,0,52.21,60.15,33.84,35.71
"2017-03-22 04:40:00",280313,1.358,271.5,-5.814,88.3,0,0,857.8972,0,114.3,2.059,183,0.866,1.374,0.2351925,0,52.27,60.15,33.85,35.71
"2017-03-22 04:50:00",280314,1.562,282.6,-5.849,88.3,0,0,858.3779,0,114.2,2.06,170,0.838,1.374,0.2276056,0,52.27,60.15,33.85,35.71
"2017-03-22 05:00:00",280315,1.127,263.9,-5.818,87.3,0,0,858.3611,0,114.1,2.061,183,0.83,1.374,0.2807136,0,52.27,60.15,33.85,35.71
"2017-03-22 05:10:00",280316,1.501,268.4,-5.922,87.8,0,0,858.496,0,114.1,2.062,174,0.826,1.377,0.2276056,0,52.27,60.09,33.85,35.7
"2017-03-22 05:20:00",280317,1.745,265.1,-5.84,85.8,0,0,858.6288,0,113.7,2.065,170,0.817,1.38,0.364169,0,52.21,60.15,33.84,35.71
"2017-03-22 05:30:00",280318,0.608,279.6,-5.819,88.5,0,0,858.7911,0,113.9,2.063,191,0.843,1.393,0.231399,0,52.27,60.15,33.85,35.71
"2017-03-22 05:40:00",280319,0.65,255.4,-5.852,90.7,0,0,858.7869,0.5,113.6,2.066,170,0.836,1.396,0.2769202,0,52.27,60.15,33.85,35.71
"2017-03-22 05:50:00",280320,1.195,253.9,-5.896,92.4,0.07868627,0,858.9282,0,113.8,2.064,191,0.829,1.41,0.9483567,1.511,52.27,60.15,33.85,35.71
"2017-03-22 06:00:00",280321,1.205,271.2,-5.909,90.2,0.2281902,0,858.9872,0,113.6,2.067,170,0.814,1.403,2.82231,11.73,52.27,60.15,33.85,35.71
"2017-03-22 06:10:00",280322,0.809,276.7,-5.889,89.9,0.8262058,0,859.0632,0,113.6,2.067,170,0.81,1.4,5.511849,8.64,52.27,60.15,33.85,35.71
"2017-03-22 06:20:00",280323,0.473,277.5,-5.844,90.2,2.242558,0,859.2002,0,113.5,2.067,170,0.81,1.394,10.62918,4.86,52.27,60.15,33.85,35.71
"2017-03-22 06:30:00",280324,0.865,286.8,-5.823,88.6,3.100239,0,859.274,0,113.4,2.068,169,0.81,1.41,14.84747,4.777,52.21,60.15,33.84,35.71
"2017-03-22 06:40:00",280325,0.185,269.6,-5.798,90.4,4.351351,0,859.2867,0,113.4,2.068,169,0.804,1.41,20.91316,4.845,52.27,60.15,33.85,35.71
"2017-03-22 06:50:00",280326,1.043,284.2,-5.741,90.4,5.047724,0,859.2297,0,113.3,2.068,170,0.803,1.413,24.81281,4.908,52.27,60.15,33.85,35.71
"2017-03-22 07:00:00",280327,0.702,252.1,-5.626,90.9,6.043106,0,859.5565,0,113.4,2.067,171,0.816,1.397,30.47639,5.033,52.27,60.15,33.85,35.71
"2017-03-22 07:10:00",280328,0.71,200.5,-5.504,91.4,9.926272,0,859.5902,0,113.3,2.068,191,0.824,1.396,46.67053,4.73,52.27,60.15,33.85,35.71
"2017-03-22 07:20:00",280329,0.323,282.1,-5.388,92.1,11.62983,0,859.8116,0,113.3,2.067,190,0.829,1.374,53.99564,4.674,52.27,60.15,33.85,35.71
"2017-03-22 07:30:00",280330,0.535,286.7,-5.223,90.1,12.4403,0,859.9255,0,113.3,2.067,190,0.849,1.372,56.94692,4.575,52.27,60.15,33.85,35.71
"2017-03-22 07:40:00",280331,0.81,263.5,-5.148,91.4,18.47947,0,860.092,0,113.2,2.067,182,0.84,1.37,80.45859,4.353,52.27,60.15,33.85,35.71
"2017-03-22 07:50:00",280332,1.022,271.3,-4.967,89.7,23.53506,0,860.189,0,113.1,2.067,186,0.85,1.361,101.4097,4.298,52.27,60.15,33.85,35.71
"2017-03-22 08:00:00",280333,1.111,257.3,-4.836,89.5,23.75145,0,860.3956,0,113.2,2.066,189,0.852,1.346,100.8065,4.233,52.27,60.15,33.85,35.71
"2017-03-22 08:10:00",280334,0.563,269.9,-4.681,90.3,27.03267,0,860.4315,0,113.1,2.066,186,0.849,1.335,119.4588,4.412,52.27,60.15,33.85,35.71
"2017-03-22 08:20:00",280335,0.174,292.2,-4.51,92.1,17.28344,0,860.5812,0,113.2,2.065,190,0.823,1.357,75.67507,4.391,52.27,60.15,33.85,35.71
"2017-03-22 08:30:00",280336,0.482,202.9,-4.406,92.7,20.35614,0,860.6129,0,113.1,2.066,191,0.811,1.391,88.34512,4.35,52.27,60.09,33.85,35.7
"2017-03-22 08:40:00",280337,1.116,283.1,-4.449,91.5,25.97434,0,860.7372,0,113.1,2.066,185,0.811,1.407,109.9639,4.235,52.27,60.15,33.85,35.71
"2017-03-22 08:50:00",280338,0.789,289.3,-4.233,91.3,27.64249,0,860.7618,0,113.2,2.064,189,0.817,1.403,119.6599,4.328,52.27,60.15,33.85,35.71
"2017-03-22 09:00:00",280339,0.221,258,-4.292,90.9,26.31662,0,860.8159,0,113.3,2.063,189,0.825,1.387,112.0161,4.247,52.27,60.15,33.85,35.71
"2017-03-22 09:10:00",280340,0.328,282.6,-4.105,90.1,28.02392,0,860.8536,0,113.2,2.063,190,0.829,1.372,120.2356,4.287,52.27,60.09,33.85,35.7
"2017-03-22 09:20:00",280341,0.35,217.2,-3.777,89.1,45.33448,0,861.0629,0,113,2.062,189,0.812,1.352,194.3518,4.264,52.27,60.15,33.85,35.71
"2017-03-22 09:30:00",280342,0.102,229.5,-3.069,85.5,50.68375,0,861.1646,0,113.1,2.061,189,0.786,1.296,222.771,4.407,52.32,60.15,33.87,35.71
"2017-03-22 09:40:00",280343,0.179,235.7,-2.866,84.9,65.13019,0,861.268,0,113,2.06,190,0.769,1.242,270.3279,4.171,52.27,60.15,33.85,35.71
"2017-03-22 09:50:00",280344,0,0,-2.435,83.9,62.33904,0,861.297,0,112.9,2.06,189,0.764,1.273,271.9666,4.359,52.27,60.09,33.85,35.7
"2017-03-22 10:00:00",280345,0.739,234.8,-2.688,84.2,54.56646,0,861.4213,0,112.7,2.064,182,0.771,1.353,220.7455,3.998,52.27,60.15,33.85,35.71
"2017-03-22 10:10:00",280346,0.215,312.8,-2.818,86.5,49.08752,0,861.3623,0,112.8,2.063,181,0.767,1.37,200.2933,4.068,52.27,60.15,33.85,35.71
"2017-03-22 10:20:00",280347,0.051,325.7,-2.84,86.6,55.50212,0,861.2337,0,112.7,2.064,173,0.767,1.371,232.7385,4.167,52.27,60.09,33.85,35.7
"2017-03-22 10:30:00",280348,0.888,311.2,-3.301,88.2,30.20521,0,861.2574,0,112.9,2.064,169,0.767,1.371,109.1072,3.561,52.27,60.15,33.85,35.71
"2017-03-22 10:40:00",280349,0.624,300.4,-3.338,93.9,35.97752,0,861.2808,0,112.6,2.066,174,0.757,1.362,137.6266,3.799,52.27,60.15,33.85,35.71
"2017-03-22 10:50:00",280350,0.703,353.1,-3.467,91.8,30.05684,0,861.29,0,112.2,2.072,171,0.742,1.346,112.4337,3.714,52.32,60.15,33.87,35.71
"2017-03-22 11:00:00",280351,0.923,332.9,-3.606,93.2,39.04954,0,861.1932,0,112.8,2.065,173,0.734,1.339,154.2333,3.913,52.27,60.15,33.85,35.71
"2017-03-22 11:10:00",280352,0.414,326.9,-3.075,89.7,60.37824,0,861.1895,0,112.7,2.063,173,0.73,1.334,268.1414,4.398,52.27,60.15,33.85,35.71
"2017-03-22 11:20:00",280353,0.36,350.9,-2.662,89,54.82967,0,861.2086,0,112.7,2.063,173,0.734,1.334,241.6726,4.399,52.32,60.15,33.87,35.71
"2017-03-22 11:30:00",280354,0.357,313.1,-2.59,88.8,55.71324,0,861.1959,0,112.6,2.064,173,0.777,1.328,239.999,4.279,52.32,60.15,33.87,35.71
"2017-03-22 11:40:00",280355,0,0,-2.361,87.8,43.67772,0,861.3174,0,112.8,2.062,173,0.786,1.285,186.8726,4.266,52.27,60.15,33.85,35.71
"2017-03-22 11:50:00",280356,0.657,329.9,-2.267,85.5,77.81142,0,861.4311,0,112.6,2.063,174,0.779,1.255,340.6416,4.326,52.27,60.21,33.85,35.73
"2017-03-22 12:00:00",280357,0.536,340.2,-1.534,80.4,122.5632,0,861.4306,0,111.9,2.064,174,0.722,1.251,561.6776,4.472,52.27,60.15,33.85,35.71
"2017-03-22 12:10:00",280358,0.672,336.6,-1.262,76.69,91.22626,0,861.4305,0,112,2.064,185,0.681,1.362,434.4447,4.838,52.27,60.21,33.85,35.73
"2017-03-22 12:20:00",280359,0.451,355,-1.226,78.14,61.93901,0,861.4255,0,111.8,2.068,192,0.722,1.341,297.6079,4.835,52.32,60.21,33.87,35.73
"2017-03-22 12:30:00",280360,0.299,351.1,-1.664,79.84,48.45722,0,861.3845,0,111.7,2.069,188,0.728,1.329,221.8546,4.601,52.27,60.21,33.85,35.73
"2017-03-22 12:40:00",280361,0.687,337,-1.62,78.79,64.64381,0,861.4467,0,111.6,2.07,187,0.716,1.312,271.2294,4.182,52.27,60.21,33.85,35.73
"2017-03-22 12:50:00",280362,0.53,6.666,-1.023,77.97,104.8261,0,861.6257,0,111.5,2.067,193,0.717,1.277,436.0331,4.199,52.27,60.21,33.85,35.73
"2017-03-22 13:00:00",280363,0.484,324.1,-0.247,74.31,115.7031,0,861.6405,0,111,2.072,187,0.731,1.228,485.0302,4.254,52.32,60.15,33.87,35.71
"2017-03-22 13:10:00",280364,0.765,54.09,-0.827,76.4,93.5004,0,861.7053,0,110.9,2.073,192,0.702,1.215,373.6536,4.277,52.27,60.21,33.85,35.73
"2017-03-22 13:20:00",280365,0.557,157.1,-0.607,70.74,115.5936,0,861.5914,0,110.7,2.075,191,0.686,1.204,433.1139,3.8,52.32,60.21,33.87,35.73
"2017-03-22 13:30:00",280366,0.877,17.57,-1.091,67.6,69.3232,0,861.4397,0,110.6,2.079,190,0.68,1.198,255.2061,3.851,52.32,60.15,33.87,35.71
"2017-03-22 13:40:00",280367,1.052,304.5,-1.203,67.57,107.7453,0,861.3449,0,110.7,2.078,186,0.678,1.196,352.5048,3.267,52.32,60.15,33.87,35.71
"2017-03-22 13:50:00",280368,0.973,275.7,-1.391,70.38,66.53587,0,861.4755,0,110.3,2.082,191,0.684,1.195,217.952,3.4,52.32,60.15,33.87,35.71
"2017-03-22 14:00:00",280369,0.94,310,-1.2,70.81,97.98206,0,861.4713,0,110.3,2.08,192,0.713,1.195,276.6367,3.059,52.27,60.15,33.85,35.71
"2017-03-22 14:10:00",280370,0.523,12.54,-0.624,74.03,105.3042,0,861.3492,0,109.9,2.084,169,0.683,1.195,266.7726,2.739,52.27,60.15,33.85,35.71
"2017-03-22 14:20:00",280371,0.977,26.48,-0.804,74.57,70.43467,0,861.4797,0,109.8,2.085,190,0.677,1.195,228.1344,3.286,52.27,60.15,33.85,35.71
"2017-03-22 14:30:00",280372,1.05,324,-1.254,73.03,56.80836,0,861.7367,0,110.1,2.085,190,0.677,1.195,158.1756,2.771,52.32,60.15,33.87,35.71
"2017-03-22 14:40:00",280373,0.58,265.3,-1.476,73.94,43.85807,0,861.8672,0,110,2.086,190,0.677,1.195,113.1596,2.573,52.32,60.15,33.87,35.71
"2017-03-22 14:50:00",280374,0.748,304.6,-1.555,73.78,39.63694,0,861.8463,0,109.8,2.088,186,0.679,1.195,96.33401,2.431,52.27,60.15,33.85,35.71
"2017-03-22 15:00:00",280375,0.508,353.2,-1.298,75.3,49.97359,0,861.8463,0,109.5,2.089,187,0.677,1.195,132.058,2.629,52.27,60.15,33.85,35.71
"2017-03-22 15:10:00",280376,0.873,349.8,-1.162,73.54,48.09888,0,861.8463,0,109.4,2.091,185,0.673,1.195,138.6709,2.874,52.32,60.15,33.87,35.71
"2017-03-22 15:20:00",280377,1.248,297.8,-1.519,75,41.30468,0,861.842,0,109.5,2.092,176,0.653,1.241,107.1411,2.534,52.27,60.15,33.85,35.71
"2017-03-22 15:30:00",280378,0.753,10.45,-1.378,77.65,41.15176,0,861.9094,0,109.3,2.092,183,0.657,1.315,101.7708,2.474,52.32,60.15,33.87,35.71
"2017-03-22 15:40:00",280379,0.975,33.47,-1.228,77.5,40.31441,0,862.1254,0,109.1,2.094,186,0.652,1.329,105.874,2.624,52.27,60.15,33.85,35.71
"2017-03-22 15:50:00",280380,0.805,8.16,-1.164,76.47,41.04439,0,862.3253,0,109,2.094,187,0.669,1.352,105.7976,2.563,52.27,60.15,33.85,35.71
"2017-03-22 16:00:00",280381,0.839,12.99,-1.066,75,43.16864,0,862.292,0,108.8,2.096,187,0.677,1.328,121.3467,2.81,52.32,60.21,33.87,35.73
"2017-03-22 16:10:00",280382,0.921,278.4,-1.593,76.14,24.02606,0,862.3162,0,109,2.098,178,0.707,1.267,58.716,2.422,52.27,60.21,33.85,35.73
"2017-03-22 16:20:00",280383,0.513,258.9,-2.113,79.06,24.14016,0,862.3912,0,108.7,2.102,190,0.758,1.247,53.20433,2.2,52.32,60.15,33.87,35.71
"2017-03-22 16:30:00",280384,0.379,183.7,-2.316,79.55,23.0236,0,862.4755,0,108.7,2.102,182,0.763,1.259,43.50363,1.89,52.27,60.21,33.85,35.73
"2017-03-22 16:40:00",280385,0.891,237,-2.432,79.4,26.86087,0,862.4391,0,108.7,2.102,191,0.762,1.281,58.87548,2.191,52.27,60.15,33.85,35.71
"2017-03-22 16:50:00",280386,0.664,277.5,-2.418,79.14,20.65284,0,862.4416,0,108.7,2.103,191,0.746,1.282,48.17016,2.31,52.32,60.21,33.87,35.73
"2017-03-22 17:00:00",280387,0.63,203.8,-2.541,78.05,13.65061,0,862.4564,0,108.6,2.104,190,0.682,1.282,34.66341,2.539,52.27,60.21,33.85,35.73
"2017-03-22 17:10:00",280388,0.635,228.8,-2.649,78.57,9.113511,0,862.6693,0,108.7,2.103,187,0.678,1.282,26.00135,2.852,52.32,60.15,33.87,35.71
"2017-03-22 17:20:00",280389,1.067,282.8,-2.567,77.32,10.78839,0,862.8757,0,108.6,2.104,188,0.68,1.282,38.32159,3.523,52.27,60.15,33.85,35.71
"2017-03-22 17:30:00",280390,1.625,294.1,-2.808,76.59,6.10595,0,862.9115,0,108.6,2.105,182,0.694,1.284,19.72036,3.23,52.32,60.21,33.87,35.73
"2017-03-22 17:40:00",280391,1.442,308.4,-3,76.16,3.912248,0,862.9313,0,108.6,2.106,182,0.736,1.26,13.42432,3.46,52.32,60.15,33.87,35.71
"2017-03-22 17:50:00",280392,0.711,318.2,-3.112,77.14,1.973974,0,862.9641,0,108.5,2.108,184,0.732,1.24,8.379017,4.274,52.27,60.21,33.85,35.73
"2017-03-22 18:00:00",280393,0.642,239.9,-3.325,80.6,0.5112314,0,863.1769,0,108.5,2.108,180,0.743,1.235,3.651453,7.069,52.32,60.21,33.87,35.73
"2017-03-22 18:10:00",280394,0.933,285,-3.4,80.9,0,0,863.2723,0,108.4,2.109,184,0.757,1.262,0.8797401,0,52.32,60.21,33.87,35.73
"2017-03-22 18:20:00",280395,1.073,285.3,-3.448,80.6,0,0,863.3073,0,108.4,2.109,180,0.763,1.281,0.04550487,0,52.32,60.15,33.87,35.71
"2017-03-22 18:30:00",280396,1.083,288.6,-3.558,81.8,0,0,863.4603,0,108.6,2.108,183,0.767,1.284,0,0,52.32,60.21,33.87,35.73
"2017-03-22 18:40:00",280397,1.155,333.3,-3.678,79.67,0,0,863.5181,0,108.6,2.108,182,0.789,1.284,0,0,52.32,60.21,33.87,35.73
"2017-03-22 18:50:00",280398,0.675,280.5,-3.685,78.97,0,0,863.4044,0,108.3,2.112,184,0.793,1.284,0,0,52.32,60.21,33.87,35.73
"2017-03-22 19:00:00",280399,0.681,292.4,-3.9,82.8,0,0,863.5414,0,108.5,2.11,182,0.775,1.284,0,0,52.27,60.21,33.85,35.73
"2017-03-22 19:10:00",280400,0.159,279.3,-3.919,84.2,0,0,863.5436,0,108.4,2.112,187,0.738,1.285,0,0,52.32,60.15,33.87,35.71
"2017-03-22 19:20:00",280401,0.445,238.7,-4,86.1,0,0,863.7648,0,108.5,2.11,175,0.735,1.296,0.09859539,0,52.32,60.15,33.87,35.71
"2017-03-22 19:30:00",280402,0.264,272.4,-3.984,85.9,0,0,864.0389,0,108.6,2.11,184,0.744,1.322,0.04929769,0,52.32,60.21,33.87,35.73
"2017-03-22 19:40:00",280403,0.691,289.1,-3.995,84.6,0,0,864.1443,0,108.3,2.112,187,0.742,1.321,0.01137639,0,52.32,60.15,33.87,35.71
"2017-03-22 19:50:00",280404,0.412,271.5,-4.049,84.9,0,0,864.3087,0,108.2,2.114,179,0.754,1.325,0,0,52.32,60.21,33.87,35.73
"2017-03-22 20:00:00",280405,0.253,221.5,-4.317,86.2,0,0,864.3445,0,108.3,2.114,192,0.767,1.327,0,0,52.27,60.21,33.85,35.73
"2017-03-22 20:10:00",280406,0.5,192,-4.628,87.7,0,0,864.2707,0,108.5,2.114,184,0.774,1.331,0,0,52.27,60.15,33.85,35.71
"2017-03-22 20:20:00",280407,0.343,226.5,-4.764,88.1,0,0,864.2897,0,108.5,2.114,184,0.798,1.354,0,0,52.32,60.15,33.87,35.71
"2017-03-22 20:30:00",280408,0.305,210.4,-4.935,87.9,0,0,864.3077,0,108.2,2.117,183,0.811,1.375,0,0,52.32,60.15,33.87,35.71
"2017-03-22 20:40:00",280409,0.311,206.6,-5.058,87.3,0,0,864.3331,0,108.5,2.114,188,0.816,1.355,0,0,52.27,60.21,33.85,35.73
"2017-03-22 20:50:00",280410,0.312,209.8,-4.956,85.1,0,0,864.3588,0,108.3,2.117,183,0.824,1.347,0.06827467,0,52.27,60.15,33.85,35.71
"2017-03-22 21:00:00",280411,0.339,203.8,-5.043,85.8,0,0,864.3817,0,108.1,2.119,178,0.845,1.359,0.01137985,0,52.32,60.21,33.87,35.73
"2017-03-22 21:10:00",280412,0.594,180.7,-5.122,83.9,0,0,864.4004,0,108.2,2.117,174,0.846,1.368,0.03793384,0,52.32,60.15,33.87,35.71
"2017-03-22 21:20:00",280413,0.384,178.5,-5.116,81.1,0,0,864.5073,0,108.3,2.117,179,0.829,1.371,0.003793391,0,52.32,60.21,33.87,35.73
"2017-03-22 21:30:00",280414,0.868,180.3,-5.187,81.9,0,0,864.6457,0,108.4,2.115,192,0.837,1.372,0.01517369,0,52.27,60.15,33.85,35.71
"2017-03-22 21:40:00",280415,1.087,175.7,-4.941,80.1,0,0,864.6461,0,108.3,2.117,188,0.827,1.373,0.05310795,0,52.27,60.21,33.85,35.73
"2017-03-22 21:50:00",280416,1.176,175,-4.979,80.3,0,0,864.6462,0,108.3,2.116,183,0.814,1.373,0,0,52.32,60.21,33.87,35.73
"2017-03-22 22:00:00",280417,0.994,188.7,-4.804,78.56,0,0,864.7347,0,108.3,2.115,187,0.812,1.379,0,0,52.27,60.21,33.85,35.73
"2017-03-22 22:10:00",280418,0.533,212.8,-4.658,77,0,0,864.7748,0,108.3,2.115,174,0.81,1.379,0,0,52.32,60.15,33.87,35.71
"2017-03-22 22:20:00",280419,0.899,218.9,-4.544,75.2,0,0,864.6399,0,108.3,2.114,182,0.81,1.386,0.03793427,0,52.32,60.15,33.87,35.71
"2017-03-22 22:30:00",280420,0.722,214.4,-4.559,74.83,0,0,864.623,0,108.3,2.115,176,0.812,1.394,0.003793427,0,52.32,60.15,33.87,35.71
"2017-03-22 22:40:00",280421,0.64,215.4,-4.614,74.79,0,0,864.4227,0,108.3,2.116,179,0.81,1.398,0,0,52.32,60.21,33.87,35.73
"2017-03-22 22:50:00",280422,1.007,184.6,-4.807,75.1,0,0,864.2983,0,108.3,2.115,187,0.809,1.409,0.01138028,0,52.27,60.21,33.85,35.73
"2017-03-22 23:00:00",280423,1.272,197.3,-4.451,71.49,0,0,864.3911,0,108.2,2.115,183,0.81,1.41,0.03414084,0,52.32,60.15,33.87,35.71
"2017-03-22 23:10:00",280424,0.955,230.1,-4.271,70.31,0,0,864.3868,0,108.4,2.112,179,0.807,1.41,0.02276056,0,52.32,60.21,33.87,35.73
"2017-03-22 23:20:00",280425,0.556,228,-4.012,67.92,0,0,864.2667,0,108,2.116,175,0.81,1.41,0,0,52.32,60.21,33.87,35.73
"2017-03-22 23:30:00",280426,0.439,237.7,-4.482,72.48,0,0,864.313,0,108.2,2.117,179,0.806,1.413,0,0,52.32,60.21,33.87,35.73
"2017-03-22 23:40:00",280427,0.244,295.9,-4.565,71.81,0,0,864.1992,0,108.3,2.115,187,0.796,1.415,0,0,52.27,60.21,33.85,35.73
"2017-03-22 23:50:00",280428,0.267,315.7,-4.583,71.46,0,0,864.1402,0,108.2,2.117,187,0.759,1.415,0.003793427,0,52.32,60.21,33.87,35.73
